Wind_Speed
70 72 73 75 80 86 90 93 95 97 101 105 105 103 97 91 86 72 61 48 36 27 18 14 15 21 29 39 53 61 69 83 103 118 127 131 145 145 143 141 138 132 131 129
65 67 71 75 77 80 84 89 94 97 101 103 105 107 107 103 93 83 69 59 46 35 23 15 11 14 21 30 40 52 61 68 83 104 120 127 133 146 142 142 140 135 135 133
63 66 65 67 74 76 82 86 89 93 97 99 100 103 106 106 98 89 83 68 57 45 35 22 13 9 13 21 31 42 52 62 71 86 106 121 127 134 146 143 144 140 137 137
63 62 65 66 68 74 80 82 85 87 92 95 96 99 101 102 103 96 89 80 68 58 45 34 22 13 9 13 21 32 43 54 63 72 88 108 121 127 138 147 147 146 142 139
61 64 64 64 67 72 75 79 84 88 90 94 95 97 99 100 103 105 97 89 80 70 58 45 34 23 12 10 14 23 35 45 55 63 75 93 110 121 128 140 148 147 148 144
62 66 65 66 66 69 73 77 80 84 87 90 95 96 97 98 99 102 105 102 92 80 69 57 45 34 24 13 10 16 24 35 46 55 63 77 96 112 121 129 139 151 149 151
60 62 64 66 67 68 72 78 82 84 87 90 91 93 96 96 97 99 102 102 101 92 81 67 56 45 34 24 13 11 18 25 34 46 56 65 80 100 115 122 130 137 151 150
58 60 63 66 68 70 71 74 79 81 83 85 88 91 93 94 95 95 97 98 99 98 95 82 68 57 45 34 25 16 11 17 26 34 46 56 66 84 103 116 123 130 135 151
61 62 63 64 67 69 72 72 76 80 80 84 87 90 92 93 93 94 94 95 95 95 95 93 83 68 56 45 33 25 17 13 16 24 34 45 56 70 87 105 118 124 130 134
56 60 64 65 65 68 70 71 72 76 79 82 86 89 91 92 93 92 92 93 94 93 93 94 91 83 68 54 44 34 24 19 15 15 22 33 43 53 70 89 107 118 124 129
53 58 61 64 65 66 68 70 71 75 79 83 86 89 92 92 92 92 90 90 92 93 92 91 91 89 82 70 54 43 35 25 20 17 18 22 30 42 51 67 88 107 118 124
53 57 59 60 63 63 66 69 71 73 77 82 85 89 92 92 93 92 91 91 91 92 93 91 89 88 85 79 70 56 43 31 25 20 19 20 24 29 40 51 62 82 106 118
53 57 58 60 63 63 66 70 71 74 78 82 85 87 92 93 94 93 92 91 92 93 92 92 91 87 86 82 75 67 57 45 31 23 20 20 22 25 30 40 50 63 74 100
54 56 57 59 62 63 64 68 70 74 78 81 84 88 90 91 92 93 93 92 93 94 94 93 92 91 88 84 80 72 62 52 45 35 24 21 21 24 27 31 39 49 62 72
56 59 59 58 59 62 67 68 72 75 78 81 85 88 90 93 93 93 92 93 94 96 96 96 94 92 90 87 83 79 71 60 49 41 33 26 22 23 26 30 34 40 49 59
57 57 57 58 60 63 65 71 74 75 80 83 86 91 93 93 93 92 92 92 94 95 95 95 96 94 93 91 86 82 76 67 56 45 40 34 28 24 24 28 33 38 43 49
58 58 58 61 65 67 68 71 76 79 81 86 89 91 93 94 94 92 91 92 94 94 94 92 92 93 92 91 89 85 79 73 65 52 42 38 35 30 28 27 30 35 41 46
58 61 63 65 68 69 72 72 74 77 81 86 89 89 90 92 91 90 92 92 90 90 91 91 91 92 93 92 91 88 83 79 71 60 48 38 35 35 33 31 32 34 37 43
62 63 65 67 67 70 72 75 77 78 80 81 83 86 89 88 87 87 89 90 90 90 93 93 94 93 93 92 92 90 87 82 76 69 57 46 38 35 34 34 34 35 37 40
64 63 65 63 66 67 69 72 75 79 81 81 81 86 89 86 87 91 90 95 94 95 95 96 95 97 95 93 92 91 89 85 80 72 65 54 47 39 36 35 36 36 38 39
67 69 70 70 71 72 73 74 74 77 81 88 90 93 93 97 96 96 96 96 97 99 101 101 100 96 98 94 93 91 89 85 82 76 68 60 53 46 41 38 38 39 40 41
72 76 75 79 79 82 84 83 83 84 91 96 99 101 101 99 99 101 102 100 100 102 103 104 103 97 95 96 93 91 87 85 82 77 70 65 56 51 45 43 41 40 41 43
76 76 77 79 85 85 85 90 89 91 96 100 102 105 105 105 104 104 104 105 104 106 105 103 100 98 95 94 92 90 86 84 81 78 72 66 60 52 47 45 44 43 43 45
76 78 81 81 86 84 85 93 97 96 100 107 109 110 111 113 107 109 107 108 108 106 104 102 100 99 93 91 89 88 85 83 79 77 72 67 61 55 49 47 47 45 45 47
81 78 78 80 84 91 94 101 106 105 105 105 109 112 116 116 114 112 109 108 106 108 105 98 98 96 92 89 88 86 83 80 77 74 70 67 61 57 50 49 48 48 47 48
90 88 91 94 97 98 100 103 109 113 117 118 117 119 119 118 118 116 111 106 105 103 101 99 97 95 91 88 86 83 80 76 73 71 67 65 60 57 52 50 50 49 48 49
97 101 97 98 101 103 110 110 114 118 122 124 124 124 121 117 115 112 107 102 100 97 94 93 93 93 90 85 82 79 76 72 68 67 66 61 57 55 53 51 51 50 50 50
Wind_Direction
9 9 12 14 15 17 18 19 22 23 23 24 24 23 21 20 20 17 15 10 8 358 340 308 272 244 234 228 227 228 225 221 219 218 220 218 216 216 216 217 218 218 217 217
8 11 8 10 14 17 16 16 19 22 22 22 23 23 24 23 20 21 18 17 12 13 3 344 307 263 241 230 227 226 227 224 221 219 219 220 218 216 215 216 217 218 217 217
7 6 10 9 12 13 14 15 17 19 20 20 20 22 24 23 22 21 23 19 18 14 16 8 349 302 254 238 230 225 226 226 223 219 219 220 220 218 216 216 216 217 218 217
3 4 4 8 9 11 12 13 15 16 16 18 19 20 21 24 24 23 21 23 21 20 15 15 12 352 305 251 237 231 226 226 225 222 219 219 220 220 219 217 217 217 218 218
1 3 4 4 8 11 11 11 11 12 13 14 16 17 20 21 25 25 23 21 23 21 20 15 12 11 353 299 253 236 230 228 226 224 219 218 219 220 220 220 218 218 218 219
1 360 2 4 5 8 10 9 9 9 10 11 13 15 17 19 21 23 24 25 21 23 21 18 15 11 8 352 296 254 238 234 230 228 225 219 218 220 221 221 221 219 219 220
360 358 359 360 1 5 6 6 7 8 8 10 11 12 14 16 17 20 22 24 24 23 21 22 18 14 8 6 349 294 255 239 235 232 228 225 220 219 221 222 222 222 221 221
353 357 357 358 359 1 3 4 3 5 5 6 7 8 10 12 13 15 17 19 22 24 23 20 21 17 14 6 360 344 304 264 244 237 235 228 225 222 221 222 223 223 224 222
348 351 355 356 357 358 359 359 360 0 1 1 4 5 6 8 10 12 13 15 17 20 23 22 19 18 18 10 4 354 340 308 273 252 239 235 231 226 224 222 224 225 224 224
344 346 348 354 354 356 357 358 357 356 357 358 360 1 3 4 5 8 9 10 12 15 17 21 21 19 14 16 10 1 350 334 304 283 262 245 236 235 228 226 225 226 227 226
341 343 344 346 351 351 353 354 353 352 353 355 357 359 360 1 2 3 5 7 8 9 13 14 17 19 19 12 10 10 359 345 327 302 282 264 252 240 236 233 229 227 228 229
339 338 341 341 344 347 348 350 350 348 349 350 353 354 356 357 358 359 360 1 3 5 6 9 11 14 16 18 12 5 5 357 342 320 300 281 266 255 246 240 237 233 230 231
333 335 337 339 342 344 346 345 347 345 346 347 349 351 351 353 354 354 355 356 357 359 0 2 4 7 9 13 15 13 3 357 351 339 318 295 281 263 257 249 245 237 237 235
329 332 334 336 339 339 341 342 342 341 342 344 346 347 348 350 350 351 351 353 353 354 355 356 358 360 2 5 9 11 9 2 352 345 333 315 293 278 265 256 251 248 241 238
327 330 331 332 333 334 335 337 337 340 340 340 341 343 345 346 347 347 348 350 350 349 350 350 352 354 356 358 1 5 7 5 358 345 337 326 310 293 277 266 258 252 246 244
324 326 326 328 330 331 333 333 334 336 336 336 338 339 341 342 343 343 344 345 346 346 347 347 347 349 351 352 355 357 0 2 2 353 340 331 319 306 291 278 268 260 255 250
319 322 322 324 325 327 330 331 332 332 334 334 335 336 337 338 339 339 339 340 341 342 343 343 344 345 347 348 349 351 353 356 356 357 349 334 324 312 301 289 277 270 263 256
317 318 320 322 324 325 326 327 328 328 330 331 332 334 335 336 336 337 336 336 337 337 339 340 339 341 342 343 344 345 347 349 351 351 349 341 329 320 309 298 290 280 273 267
311 315 318 320 322 323 325 327 327 328 328 330 331 332 332 331 331 331 332 334 335 334 334 335 336 337 338 339 340 340 341 343 345 346 345 342 332 322 315 307 298 290 282 276
308 311 315 317 319 321 324 324 325 326 326 327 330 329 332 333 331 332 330 330 330 331 332 332 333 332 333 334 335 336 336 337 339 339 341 339 337 325 316 309 303 295 289 284
306 307 310 312 314 315 316 319 320 323 325 326 327 328 330 329 330 330 328 328 328 327 327 327 328 329 329 330 331 332 332 333 335 336 335 336 333 329 320 314 308 302 296 293
301 305 306 308 309 313 313 314 318 321 322 325 328 326 325 325 324 325 325 325 324 325 325 324 324 325 325 326 328 328 328 328 330 331 331 332 331 329 321 315 311 307 302 298
300 303 303 304 310 312 314 314 314 316 321 324 324 323 322 323 324 323 322 321 321 321 321 321 321 321 321 322 324 324 324 324 326 327 327 328 328 325 320 315 312 310 307 303
295 299 300 298 303 307 309 313 317 317 317 319 320 320 320 321 321 321 320 318 317 317 318 317 317 318 317 317 319 320 321 320 322 322 323 323 324 321 317 314 312 310 308 305
298 299 302 302 302 310 313 316 318 317 316 318 318 318 318 318 317 317 317 315 316 315 314 313 314 313 313 314 314 316 317 317 318 318 319 320 321 319 315 313 311 310 309 307
306 306 308 310 310 311 313 315 315 316 316 316 315 314 314 315 315 314 313 312 313 312 312 312 311 310 310 311 311 312 312 313 314 315 316 317 317 316 313 311 311 310 310 309
306 308 307 309 311 312 312 312 312 313 312 312 311 312 312 311 311 310 310 309 309 308 308 308 307 307 308 309 308 308 310 310 311 313 314 314 315 313 311 310 310 311 310 309
Height
10539 10524 10513 10503 10485 10469 10453 10441 10425 10409 10391 10373 10356 10343 10322 10304 10287 10270 10256 10245 10238 10232 10228 10226 10227 10229 10233 10239 10247 10257 10269 10285 10301 10317 10336 10355 10374 10393 10414 10434 10453 10471 10488 10504
10547 10535 10518 10502 10490 10477 10467 10450 10429 10412 10394 10379 10365 10347 10325 10308 10294 10279 10264 10250 10240 10233 10228 10224 10223 10224 10227 10231 10238 10246 10255 10269 10285 10299 10314 10333 10352 10372 10393 10412 10429 10447 10464 10481
10549 10537 10527 10514 10495 10485 10471 10454 10438 10420 10406 10393 10379 10359 10340 10326 10307 10287 10271 10259 10247 10235 10229 10225 10222 10221 10223 10226 10231 10237 10245 10254 10265 10280 10295 10313 10332 10351 10372 10388 10406 10423 10440 10459
10548 10540 10527 10515 10504 10487 10471 10458 10446 10434 10419 10403 10387 10371 10355 10337 10315 10297 10281 10265 10251 10242 10233 10227 10224 10221 10221 10222 10226 10230 10236 10242 10251 10263 10278 10293 10311 10331 10348 10365 10381 10399 10418 10437
10547 10537 10528 10517 10504 10492 10479 10465 10449 10435 10423 10409 10393 10376 10359 10342 10322 10306 10288 10271 10259 10248 10240 10232 10226 10223 10221 10220 10221 10225 10229 10234 10240 10249 10262 10277 10292 10307 10326 10342 10359 10379 10395 10412
10545 10532 10524 10515 10503 10491 10481 10468 10455 10441 10428 10413 10396 10381 10367 10349 10335 10317 10299 10283 10269 10258 10248 10239 10232 10226 10223 10221 10220 10221 10224 10228 10233 10240 10249 10261 10275 10288 10302 10320 10338 10354 10370 10386
10547 10536 10525 10514 10502 10491 10479 10466 10454 10442 10427 10414 10403 10389 10373 10359 10344 10328 10313 10298 10283 10268 10256 10247 10238 10231 10225 10222 10220 10220 10220 10222 10226 10231 10238 10248 10260 10270 10283 10296 10312 10331 10352 10367
10544 10536 10525 10510 10499 10487 10477 10467 10456 10444 10432 10421 10407 10394 10381 10366 10352 10338 10325 10311 10297 10281 10267 10254 10245 10237 10231 10224 10220 10218 10217 10218 10220 10223 10229 10235 10246 10257 10266 10277 10291 10306 10323 10341
10534 10528 10521 10511 10501 10488 10478 10465 10454 10444 10433 10421 10410 10398 10385 10372 10359 10346 10333 10320 10307 10293 10279 10266 10253 10244 10238 10230 10224 10219 10216 10215 10215 10217 10220 10225 10232 10240 10251 10261 10272 10285 10298 10314
10533 10525 10515 10507 10497 10488 10477 10469 10459 10448 10437 10425 10412 10401 10389 10377 10364 10353 10340 10327 10314 10303 10290 10276 10264 10252 10241 10235 10228 10222 10217 10214 10212 10212 10214 10216 10221 10228 10236 10245 10254 10265 10277 10290
10531 10523 10513 10501 10494 10485 10477 10468 10458 10446 10435 10424 10413 10402 10392 10380 10368 10357 10345 10333 10321 10308 10298 10286 10275 10262 10250 10238 10230 10225 10219 10214 10210 10208 10208 10209 10212 10217 10223 10231 10239 10247 10257 10268
10526 10517 10509 10502 10494 10485 10475 10466 10455 10444 10434 10423 10413 10402 10392 10381 10370 10359 10347 10336 10325 10314 10302 10291 10281 10270 10259 10247 10235 10225 10220 10216 10210 10206 10203 10202 10204 10207 10210 10215 10221 10229 10238 10245
10521 10513 10505 10496 10487 10480 10470 10459 10451 10440 10431 10423 10412 10402 10392 10381 10370 10359 10348 10336 10325 10315 10305 10295 10284 10275 10264 10254 10243 10231 10220 10214 10209 10204 10201 10198 10196 10197 10199 10203 10206 10212 10219 10226
10514 10508 10500 10490 10482 10472 10467 10458 10449 10439 10428 10418 10410 10399 10389 10379 10368 10357 10347 10336 10325 10314 10303 10294 10284 10273 10264 10254 10245 10235 10225 10215 10207 10200 10196 10193 10191 10189 10189 10190 10192 10196 10200 10205
10508 10499 10493 10487 10479 10470 10459 10452 10442 10434 10425 10415 10405 10396 10385 10374 10364 10354 10343 10333 10323 10312 10301 10290 10281 10272 10262 10252 10242 10233 10225 10216 10206 10198 10193 10187 10183 10181 10179 10179 10179 10180 10183 10187
10499 10493 10485 10479 10472 10465 10457 10445 10437 10430 10418 10407 10399 10387 10378 10369 10359 10348 10338 10328 10318 10307 10297 10286 10274 10266 10256 10247 10238 10229 10221 10212 10204 10195 10187 10182 10177 10173 10170 10167 10166 10166 10166 10168
10490 10485 10478 10471 10464 10457 10450 10442 10430 10421 10413 10402 10392 10383 10372 10362 10352 10341 10330 10321 10311 10300 10291 10281 10270 10259 10251 10241 10232 10223 10215 10207 10198 10191 10183 10175 10169 10164 10160 10157 10155 10153 10152 10152
10483 10476 10468 10461 10453 10445 10438 10432 10425 10415 10405 10394 10384 10375 10365 10354 10344 10334 10322 10312 10304 10292 10282 10273 10263 10253 10242 10233 10223 10214 10207 10199 10192 10184 10176 10168 10161 10155 10150 10145 10141 10139 10137 10135
10471 10464 10455 10448 10441 10433 10425 10418 10411 10403 10395 10387 10377 10366 10357 10346 10335 10324 10313 10302 10293 10282 10271 10263 10253 10243 10233 10224 10214 10204 10196 10188 10180 10174 10166 10159 10152 10145 10139 10133 10129 10125 10121 10118
10457 10451 10443 10438 10431 10423 10415 10408 10399 10390 10381 10373 10367 10357 10346 10336 10325 10314 10303 10290 10280 10270 10260 10248 10243 10232 10222 10213 10203 10194 10185 10176 10169 10160 10153 10145 10139 10133 10126 10120 10114 10109 10105 10102
10440 10434 10427 10420 10414 10408 10401 10394 10388 10379 10369 10357 10348 10340 10331 10319 10311 10299 10288 10277 10266 10255 10247 10234 10226 10218 10207 10199 10190 10180 10171 10162 10154 10146 10138 10130 10122 10116 10110 10104 10098 10092 10087 10082
10426 10419 10412 10402 10395 10389 10380 10375 10371 10362 10351 10342 10332 10320 10312 10303 10293 10283 10271 10261 10250 10239 10229 10217 10207 10201 10191 10182 10174 10164 10156 10147 10139 10131 10122 10114 10107 10099 10093 10087 10081 10076 10071 10064
10413 10406 10398 10387 10379 10373 10362 10351 10348 10341 10330 10322 10313 10303 10290 10282 10273 10261 10252 10239 10231 10222 10211 10199 10188 10181 10173 10164 10156 10147 10138 10129 10121 10114 10106 10098 10091 10084 10077 10071 10065 10058 10052 10046
10396 10391 10382 10374 10368 10359 10351 10339 10330 10324 10314 10304 10294 10281 10270 10260 10252 10239 10230 10219 10208 10199 10191 10179 10168 10158 10153 10145 10136 10129 10121 10112 10104 10096 10088 10081 10074 10067 10060 10053 10047 10041 10035 10028
10370 10365 10359 10352 10346 10338 10330 10318 10308 10298 10291 10286 10276 10262 10249 10238 10227 10217 10208 10196 10185 10173 10165 10158 10147 10136 10129 10124 10115 10109 10102 10093 10086 10078 10070 10062 10056 10050 10042 10036 10029 10023 10017 10011
10342 10338 10333 10324 10316 10310 10304 10294 10286 10271 10257 10253 10248 10237 10227 10216 10203 10189 10182 10173 10163 10152 10141 10133 10125 10112 10105 10101 10094 10087 10080 10073 10066 10059 10052 10044 10038 10032 10025 10018 10012 10006 10000 9993
10317 10312 10305 10300 10290 10283 10279 10270 10262 10255 10238 10224 10218 10206 10198 10188 10179 10165 10153 10144 10134 10124 10117 10108 10100 10089 10082 10077 10071 10065 10059 10053 10046 10040 10034 10026 10020 10015 10008 10001 9994 9989 9983 9975